Evenes, Norway

3:26 PM CEST on October 19, 2018 (GMT +0200)
Evenes

Weather History for ENEV - April, 2018

Change the Weather History Date:

Monday, April 16, 2018

  Actual Average Record
Temperature  
Mean Temperature 38 °F -  
Max Temperature 49 °F 42 °F 49 °F (2018)
Min Temperature 26 °F 34 °F 15 °F (2017)
Degree Days  
Heating Degree Days 28    
Moisture  
Dew Point 27 °F    
Average Humidity 65    
Maximum Humidity 93    
Minimum Humidity 31    
Precipitation  
Precipitation 0.00 in - - ()
Sea Level Pressure  
Sea Level Pressure 29.99 in    
Wind  
Wind Speed 3 mph ()    
Max Wind Speed 10 mph    
Max Gust Speed -    
Visibility 6.2 miles    
Events      
Averages and records for this station are not official NWS values.
T = Trace of Precipitation, MM = Missing Value Source: Averaged Metar Reports

Daily Weather History Graph

Daily Weather History Graph

Search for Another Location

Airport or City:

Astronomy

Apr. 16, 2018 Rise Set
Actual Time 4:55 AM CEST 8:53 PM CEST
Civil Twilight 3:42 AM CEST 10:08 PM CEST
Nautical Twilight 1:25 AM CEST 12:20 AM CEST
Astronomical Twilight Sun does not rise Sun does not rise
Moon 6:03 AM CEST (4/16) 9:07 PM CEST (4/16)
Length of Visible Light 18h 26m
Length of Day
15h 58m
New Moon, 0% of the Moon is Illuminated
Apr 16
New Moon
Apr 22
First Quarter
Apr 30
Full
May 8
Last Quarter
May 15
New

Hourly Weather History & Observations

Time (CEST) Temp. Windchill Dew Point Humidity Pressure Visibility Wind Dir Wind Speed Gust Speed Precip Events Conditions
12:00 AM 33 °F - 27 °F 72% 30.04 in - North 2.2 mph - -  
12:20 AM 33.8 °F - 28.4 °F 81% 30.01 in 6.2 mi North 2.3 mph - N/A   Mostly Cloudy
12:50 AM 32.0 °F - 26.6 °F 80% 30.01 in 6.2 mi Variable 2.3 mph - N/A   Overcast
1:00 AM 32 °F - 28 °F 79% 30.03 in - NE 2.2 mph - -  
1:20 AM 32.0 °F - 28.4 °F 87% 30.01 in 6.2 mi Calm Calm - N/A   Overcast
1:50 AM 32.0 °F - 28.4 °F 87% 30.01 in 6.2 mi Variable 2.3 mph - N/A   Mostly Cloudy
2:00 AM 32 °F - 28 °F 78% 30.02 in - North 4.5 mph - -  
2:20 AM 30.2 °F 25.4 °F 26.6 °F 86% 30.01 in 6.2 mi NNE 4.6 mph - N/A   Partly Cloudy
2:50 AM 30.2 °F - 26.6 °F 86% 29.98 in 6.2 mi Calm Calm - N/A   Unknown
3:00 AM 31 °F - 28 °F 81% 30.01 in - North 2.2 mph - -  
3:20 AM 28.4 °F - 26.6 °F 93% 29.98 in 6.2 mi North 2.3 mph - N/A   Unknown
3:50 AM 28.4 °F - 26.6 °F 93% 29.98 in 6.2 mi North 2.3 mph - N/A   Unknown
4:00 AM 29 °F - 27 °F 89% 30.01 in - NNE 2.2 mph - -  
4:20 AM 28.4 °F - 26.6 °F 93% 29.98 in 6.2 mi NNE 2.3 mph - N/A   Unknown
5:00 AM 27 °F - 25 °F 87% 30.00 in - Calm Calm - -  
5:20 AM 26.6 °F - 24.8 °F 93% 29.98 in 6.2 mi North 2.3 mph - N/A   Scattered Clouds
5:50 AM 26.6 °F 22.6 °F 24.8 °F 93% 29.98 in - NNE 3.5 mph - N/A   Clear
6:20 AM 28.4 °F - 24.8 °F 86% 29.98 in - Calm Calm - N/A   Clear
6:50 AM 28.4 °F - 24.8 °F 86% 29.98 in - Variable 1.2 mph - N/A   Clear
7:50 AM 33.8 °F - 24.8 °F 70% 29.98 in - Calm Calm - N/A   Clear
8:00 AM 35 °F - 26 °F 59% 30.00 in - ENE 2.2 mph - -  
8:50 AM 41.0 °F - 26.6 °F 57% 29.98 in - Calm Calm - N/A   Clear
9:00 AM 40 °F - 26 °F 46% 30.00 in - East 2.2 mph - -  
9:50 AM 42.8 °F - 28.4 °F 57% 29.98 in - Calm Calm - N/A   Clear
10:50 AM 46.4 °F - 28.4 °F 50% 29.98 in - Variable 2.3 mph - N/A   Clear
11:00 AM 44 °F - 28 °F 42% 30.00 in - SW 2.2 mph - -  
11:50 AM 42.8 °F 41.1 °F 28.4 °F 57% 29.98 in - South 3.5 mph - N/A   Clear
12:00 PM 43 °F - 27 °F 41% 30.00 in - SSW 4.5 mph - -  
12:50 PM 44.6 °F 41.4 °F 26.6 °F 49% 29.98 in - SSW 5.8 mph - N/A   Clear
1:00 PM 44 °F - 25 °F 34% 29.99 in - SSW 4.5 mph - -  
1:50 PM 48.2 °F - 24.8 °F 40% 29.98 in 6.2 mi North 4.6 mph - N/A   Scattered Clouds
2:00 PM 46 °F - 26 °F 33% 29.99 in - North 6.7 mph - -  
2:50 PM 48.2 °F - 24.8 °F 40% 29.98 in - North 6.9 mph - N/A   Clear
3:00 PM 47 °F - 26 °F 31% 30.00 in - North 8.9 mph - -  
3:50 PM 46.4 °F 42.9 °F 26.6 °F 46% 29.98 in - North 6.9 mph - N/A   Clear
4:50 PM 48.2 °F - 26.6 °F 43% 29.98 in - North 8.1 mph - N/A   Clear
5:50 PM 46.4 °F 42.4 °F 26.6 °F 46% 29.98 in - North 8.1 mph - N/A   Clear
6:00 PM 45 °F - 27 °F 36% 29.99 in - North 8.9 mph - -  
6:50 PM 42.8 °F 37.0 °F 26.6 °F 53% 29.98 in - North 10.4 mph - N/A   Clear
7:00 PM 43 °F - 26 °F 39% 30.00 in - North 8.9 mph - -  
7:50 PM 41.0 °F 35.8 °F 28.4 °F 61% 29.98 in - North 8.1 mph - N/A   Clear
8:00 PM 41 °F - 28 °F 48% 30.00 in - North 8.9 mph - -  
8:50 PM 41.0 °F 36.4 °F 28.4 °F 61% 30.01 in - North 6.9 mph - N/A   Clear
9:50 PM 39.2 °F 35.0 °F 28.4 °F 65% 29.98 in - NNE 5.8 mph - N/A   Clear
10:50 PM 37.4 °F 32.8 °F 26.6 °F 65% 30.01 in - NNE 5.8 mph - N/A   Clear
11:00 PM 36 °F - 27 °F 58% 30.02 in - NNE 4.5 mph - -  
11:20 PM 35.6 °F 30.7 °F 28.4 °F 75% 30.01 in 6.2 mi NNE 5.8 mph - N/A   Unknown
11:50 PM 33.8 °F - 26.6 °F 75% 30.01 in 6.2 mi Variable 2.3 mph - N/A   Unknown